Weather in Yermolino

Russia / Ivanovo Oblast     57°05′39″N   41°14′58″E
temp.,
°C
wind,
m/s
gust,
m/s
humid.,
%
clouds,
%
prec.,
mm/h
press.,
hPa
HPBL,
m
3 march, wed
wed300:00−5nw5138833 0.1 1006488
03:00−7nw6139137 0.1 1009454
06:00−8nw6129285 0.0 1010430
09:00−7nw6119192 0.1 1011538
12:00−4nw6108461 0.0 1010723
15:00−2w6109264 0.1 1009839
18:00−1w51292100 0.3 1007698
21:00−2w51295100 0.5 1006661
4 march, thu
thu400:00−3wsw51295100 0.2 1002574
03:00−2wsw61395100 0.4 1000693
06:00−2w5129497 0.1 996433
09:00−1wnw6117999 0.6 9961170
12:00−2wnw7118541 0.1 997937
15:00−2wnw588871 0.2 998852
18:00−5nw3891100 0.1 999177
21:00−6nnw3895100 0.1 1000223
5 march, fri
fri500:00−11nnw349251 0.0 100165
03:00−12nnw339426 0.0 100350
06:00−14nnw23940 0.0 100534
09:00−11nnw23900 0.0 1006117
12:00−7w22770 0.0 1007420
15:00−5wsw237846 0.0 1008770
18:00−7sw2392100 0.1 100839
21:00−8wsw359689 0.1 1010134
6 march, sat
sat600:00−10nw369596 0.0 101097
03:00−13nw369660 0.0 1012119
06:00−15nw499421 0.0 1013214
09:00−15nw489225 0.0 1014309
12:00−11nw468360 0.0 1014690
15:00−10wnw478375 0.1 1014981
18:00−10w2595100 0.2 1013154
21:00−13wsw339675 0.2 101254
7 march, sun
sun700:00−13ssw369674 0.0 1010105
03:00−12ssw5119354 0.0 1006309
06:00−9ssw71493100 0.3 1001803
09:00−7ssw81493100 1.1 996979
12:00−4ssw91593100 1.1 9921098
15:00−2sw81392100 2.9 9901100
18:00−7w4791100 1.8 990250
21:00−10wsw498885 1.9 991151